Regional Weather Roundup
Issued by NWS

Home | Current Version | Previous Version | Text Only | Print | Product List | Glossary On
Versions: 1 2 3 4 5 6 7 8 9 10 11 12 13 14 15 16 17 18 19 20 21 22 23 24 25 26 27 28 29 30 31 32 33 34 35 36 37 38 39 40 41 42 43 44 45 46 47 48 49 50
000
ASUS43 KDTX 300710
RWRMI
MICHIGAN HOURLY REGIONAL WEATHER ROUNDUP
NATIONAL WEATHER SERVICE DETROIT/PONTIAC MI
200 AM EST FRI JAN 30 2015

NOTE: "FAIR" INDICATES FEW OR NO CLOUDS BELOW 12,000 FEET WITH NO
SIGNIFICANT WEATHER AND/OR OBSTRUCTION TO VISIBILITY.

MIZ047>049-052>055-059>063-066>070-074>076-081>083-300800-
SOUTHEAST LOWER MICHIGAN

CITY           SKY/WX    TMP DP  RH WIND       PRES   REMARKS
ADRIAN         PTCLDY    25  14  63 N20G26    30.16R
ALMA           CLOUDY    21  11  65 NW18G28   30.20R
ANN ARBOR      CLOUDY    23  12  62 NW18G28   30.14R
BAD AXE        LGT SNOW  18  14  86 N22G28    30.12R
DETROIT CITY   CLOUDY    26  15  63 NW13G21   30.10R
DETROIT        FLURRIES  25  14  63 NW21G30   30.13R
FLINT          CLOUDY    23  12  62 NW18G28   30.14R
GROSSE ILE     CLOUDY    27  16  63 NW20G33   30.11R
HILLSDALE      MOCLDY    23  15  73 N15G23    30.15R
HOWELL         CLOUDY    22  14  70 NW14G20   30.13R

CITY           SKY/WX    TMP DP  RH WIND       PRES   REMARKS
JACKSON        CLOUDY    22  13  68 NW10G21   30.17R
LAMBERTVILLE   PTCLDY    28  18  64 NW13G22   30.14R
LANSING        CLOUDY    22  12  65 NW20G25   30.19R
LAPEER         NOT AVBL
MASON          CLOUDY    22  12  66 NW15      30.17R
MONROE         CLOUDY    27  16  63 NW21G31   30.12R
MT. CLEMENS    MIX PCPN  25  16  68 NW17G26   30.08R
PONTIAC        LGT SNOW  21  15  78 NW23G30   30.10R
PORT HOPE        N/A     19  14  81 NW16G39   30.10R
PORT HURON     LGT SNOW  21  16  79 NW15G25   30.09R
TRI CITIES     CLOUDY    21  11  65 NW17      30.17R
YPSILANTI      CLOUDY    27  14  58 NW23G31   30.13R
$$
MIZ043>046-050>051-056>058-064>065-071>073-077>080-300800-
SOUTHWEST LOWER MICHIGAN

CITY           SKY/WX    TMP DP  RH WIND       PRES   REMARKS
BATTLE CREEK   CLOUDY    24  13  62 NW13G23   30.22R
BENTON HARBOR  CLOUDY    27  16  63 N18G26    30.29R
BIG RAPIDS     FLURRIES  20  16  83 N12       30.21R
COLDWATER      MOCLDY    22  13  69 NW15G25   30.20R
HOLLAND        PTCLDY    24  13  62 N8G23     30.29R
GRAND RAPIDS   CLOUDY    22  13  68 NW21G32   30.25R
KALAMAZOO      PTCLDY    22  11  62 N21G28    30.24R
MARSHALL       CLOUDY    22  13  69 NW7       30.20R
MUSKEGON       CLOUDY    23  13  65 N16G23    30.30R
$$
MIZ016>042-300800-
NORTHERN LOWER MICHIGAN

CITY           SKY/WX    TMP DP  RH WIND       PRES   REMARKS
ALPENA         LGT SNOW  11   7  84 NW18G26   30.20R VSB 3/4 WCI  -7
BEAVER ISLAND  MOCLDY    13   6  72 N3G16     30.31R
BELLAIRE       CLOUDY    16   7  67 N13G23    30.29R
CADILLAC       CLOUDY    16   8  71 NW15G28   30.19R
CHARLEVOIX     CLOUDY    14   6  72 N17G29    30.32R WCI  -3
FRANKFORT      FLURRIES  20  13  72 NW15G24   30.31R
GAYLORD        LGT SNOW  10   5  80 N9G18     30.19R
GRAYLING       LGT SNOW  13   7  77 NW18G28   30.20R WCI  -4
HARBOR SPRINGS CLOUDY    12   5  71 NW9G21    30.27R
HOUGHTON LAKE  CLOUDY    14   6  70 NW17G24   30.18R WCI  -3
MANISTEE       CLOUDY    21  10  63 N17G24    30.30R
OSCODA         CLOUDY    14   7  72 NW23G32   30.14R HAZE    WCI  -4
PELLSTON       LGT SNOW  12   5  73 NW17G28   30.28R WCI  -5
TRAVERSE CITY  FLURRIES  19  10  68 N20G29    30.27R
$$
MIZ007>008-015-300800-
EASTERN UPPER MICHIGAN

CITY           SKY/WX    TMP DP  RH WIND       PRES   REMARKS
KINROSS        CLEAR      3   0  85 NW21G26   30.24R WCI -18
MACKINAC ISLAN MOCLDY    10   3  74 N16G28    30.26R WCI  -7
NEWBERRY       CLOUDY    10   6  82 N10       30.28R WCI  -4
S. S. MARIE    CLEAR      2  -7  66 NW13      30.27R WCI -15
$$
MIZ004>006-011>014-085-300800-
CENTRAL UPPER MICHIGAN

CITY           SKY/WX    TMP DP  RH WIND       PRES   REMARKS
MANISTIQUE     FLURRIES  14  11  87 N8G17     30.31R
ESCANABA       CLOUDY    16   5  62 NW9       30.37R
MENOMINEE      CLOUDY    18   7  62 N10       30.38R
SAWYER-GWINN   LGT SNOW  12   6  78 N14G20    30.33R WCI  -3
$$
MIZ001>003-009>011-084-300800-
WESTERN UPPER MICHIGAN

CITY           SKY/WX    TMP DP  RH WIND       PRES   REMARKS
IRON MOUNTAIN  CLOUDY    13   5  70 NW15      30.35R WCI  -3
HOUGHTON       LGT SNOW   9   2  73 N10       30.39R WCI  -5
COPPER HARBOR    N/A     13   7  77 N22G30    30.40S WCI  -6
IRONWOOD       CLOUDY    12   3  67 NW9       30.40S
$$

ABBREVIATIONS USED IN REMARKS
   TC - TEMPERATURE IN CELSIUS
  WCI - WIND CHILL INDEX
   HX - HEAT INDEX
  VSB - VISIBILITY




USA.gov is the U.S. government's official web portal to all federal, state and local government web resources and services.